Regional Weather Roundup
Issued by NWS Sioux Falls, SD

Home | Current Version | Previous Version | Text Only | Print | Product List | Glossary Off
Versions: 1 2 3 4 5 6 7 8 9 10 11 12 13 14 15 16 17 18 19 20 21 22 23 24 25 26 27 28 29 30 31 32 33 34 35 36 37 38 39 40 41 42 43 44 45 46 47 48 49 50

000
ASUS43 KFSD 030810
RWRFSD

WEATHER ROUNDUP FOR SE SOUTH DAKOTA/SW MINNESOTA/NW IOWA
NATIONAL WEATHER SERVICE SIOUX FALLS SD
200 AM CST TUE MAR 03 2015

NOTE: "FAIR" INDICATES FEW OR NO CLOUDS BELOW 12,000 FEET WITH NO
SIGNIFICANT WEATHER AND OR OBSTRUCTIONS TO VISIBILITY.


SDZ038>040-050-052>070-030900-
SOUTHEAST SOUTH DAKOTA

CITY           SKY/WX    TMP DP  RH WIND       PRES   REMARKS
CHAMBERLAIN    CLOUDY    31  17  56 S7        29.68F WCI  24
HURON          CLOUDY    30  20  66 SE9       29.72F WCI  22
MADISON        FAIR      23  23 100 S12       29.75F WCI  12
MITCHELL         N/A     29  19  66 SE12      29.74F WCI  19
SIOUX FALLS    CLOUDY    26  19  74 SE9       29.77F WCI  17
WINNER         CLOUDY    33  17  51 S10       29.66F WCI  25
YANKTON        CLOUDY    28  18  64 SE9       29.77F WCI  20
$$

MNZ071-072-080-081-089-090-097-098-030900-
SOUTHWEST MINNESOTA

CITY           SKY/WX    TMP DP  RH WIND       PRES   REMARKS
FAIRMONT       CLOUDY    23  18  80 SE14      29.85F WCI  11
JACKSON        CLOUDY    25  19  80 SE10      29.83F WCI  15
LUVERNE        CLOUDY    27  21  80 S10       29.79F WCI  17
MARSHALL       CLOUDY    25  18  74 S12       29.83F WCI  14
MONTEVIDEO     CLOUDY    25  21  86 S12       29.83F WCI  14
PIPESTONE      CLOUDY    25  19  80 S15       29.77F WCI  12
REDWOOD FALLS  CLOUDY    23  18  81 SE15      29.86F WCI  10
TRACY          CLOUDY    26  21  82 S12       29.82F WCI  15
WINDOM         CLOUDY    23  19  86 SE9       29.83F WCI  13
WORTHINGTON    CLOUDY    23  16  74 S12       29.82F WCI  12
$$

IAZ001>003-012>014-020>022-031-032-NEZ013-014-SDZ071-030900-
NORTHWEST IOWA

CITY           SKY/WX    TMP DP  RH WIND       PRES   REMARKS
CHEROKEE       CLOUDY    26  22  85 S3        29.82F
DENISON        CLOUDY    28  23  80 S10       29.79F WCI  19
ESTHERVILLE    CLOUDY    22  19  89 SE14      29.83F WCI   9
LE MARS        CLOUDY    27  21  80 SE8G15    29.80F WCI  18
ORANGE CITY    CLOUDY    27  21  80 CALM      29.79F
SHELDON        CLOUDY    25  21  86 S12       29.79F WCI  14
SIOUX CITY     CLOUDY    31  20  63 SE12      29.79F WCI  22
SPENCER        NOT AVBL
STORM LAKE     CLOUDY    25  21  86 SE17      29.82F WCI  11
$$

ABBREVIATIONS USED IN REMARKS
   TC - TEMPERATURE IN CELSIUS
  WCI - WIND CHILL INDEX
   HX - HEAT INDEX
  VSB - VISIBILITY




USA.gov is the U.S. government's official web portal to all federal, state and local government web resources and services.